Clinton, MO

7:01 AM CST on December 16, 2019 (GMT -0600)
Clinton Memorial

Weather History for KGLY - November, 2019

Change the Weather History Date:

Friday, November 15, 2019

  Actual Average (KSZL) Record (KSZL)
Temperature  
Mean Temperature 35 °F -  
Max Temperature 51 °F 53 °F 107 °F (2005)
Min Temperature 19 °F 35 °F 14 °F (2018)
Degree Days  
Heating Degree Days 30    
Moisture  
Dew Point 22 °F    
Average Humidity 70    
Maximum Humidity 93    
Minimum Humidity 35    
Precipitation  
Precipitation 0.00 in - - ()
Sea Level Pressure  
Sea Level Pressure 30.40 in    
Wind  
Wind Speed 0 mph (East)    
Max Wind Speed 4 mph    
Max Gust Speed -    
Visibility 9 miles    
Events      
Averages and records for this station are not official NWS values.
T = Trace of Precipitation, MM = Missing Value Source: NWS Daily Summary

Daily Weather History Graph

Daily Weather History Graph

Search for Another Location

Airport or City:

Astronomy

Nov. 15, 2019 Rise Set
Actual Time 6:55 AM CST 5:02 PM CST
Civil Twilight 6:27 AM CST 5:30 PM CST
Nautical Twilight 5:55 AM CST 6:02 PM CST
Astronomical Twilight 5:24 AM CST 6:33 PM CST
Moon 7:39 PM CST (11/15) 9:51 AM CST (11/15)
Length of Visible Light 11h 02m
Length of Day
10h 06m
Waning Gibbous, 90% of the Moon is Illuminated
Nov 15
Waning Gibbous
Nov 19
Last Quarter
Nov 26
New
Dec 4
First Quarter
Dec 11
Full

Hourly Weather History & Observations

Time (CST) Temp. Windchill Dew Point Humidity Pressure Visibility Wind Dir Wind Speed Gust Speed Precip Events Conditions
12:15 AM 21.2 °F - 19.4 °F 93% 30.40 in 10.0 mi Calm Calm - N/A   Clear
12:35 AM 21.2 °F - 19.4 °F 93% 30.40 in 10.0 mi Calm Calm - N/A   Clear
12:55 AM 23.0 °F - 19.4 °F 86% 30.40 in 10.0 mi Calm Calm - N/A   Clear
1:15 AM 19.4 °F - 17.6 °F 93% 30.39 in 10.0 mi Calm Calm - N/A   Clear
1:35 AM 21.2 °F - 17.6 °F 86% 30.39 in 10.0 mi Calm Calm - N/A   Clear
1:55 AM 21.2 °F - 17.6 °F 86% 30.39 in 10.0 mi Calm Calm - N/A   Clear
2:15 AM 21.2 °F - 17.6 °F 86% 30.40 in 10.0 mi Calm Calm - N/A   Clear
2:35 AM 21.2 °F - 19.4 °F 93% 30.40 in 8.0 mi Calm Calm - N/A   Clear
2:55 AM 19.4 °F - 17.6 °F 93% 30.40 in 7.0 mi Calm Calm - N/A   Clear
3:15 AM 19.4 °F - 17.6 °F 93% 30.40 in 8.0 mi Calm Calm - N/A   Clear
3:35 AM 19.4 °F - 17.6 °F 93% 30.40 in 7.0 mi Calm Calm - N/A   Clear
4:15 AM 19.4 °F - 17.6 °F 93% 30.41 in 4.0 mi Calm Calm - N/A   Clear
4:35 AM 19.4 °F - 17.6 °F 93% 30.41 in 8.0 mi Calm Calm - N/A   Clear
4:55 AM 19.4 °F - 17.6 °F 93% 30.42 in 4.0 mi Calm Calm - N/A   Clear
5:15 AM 19.4 °F - 17.6 °F 93% 30.42 in 5.0 mi Calm Calm - N/A   Clear
5:35 AM 19.4 °F - 17.6 °F 93% 30.42 in 7.0 mi Calm Calm - N/A   Clear
6:35 AM 19.4 °F - 17.6 °F 93% 30.42 in 8.0 mi Calm Calm - N/A   Clear
7:15 AM 19.4 °F - 17.6 °F 93% 30.42 in 8.0 mi Calm Calm - N/A   Clear
7:35 AM 23.0 °F - 21.2 °F 93% 30.42 in 6.0 mi Calm Calm - N/A   Clear
8:15 AM 28.4 °F - 26.6 °F 93% 30.44 in 9.0 mi Calm Calm - N/A   Clear
8:35 AM 32.0 °F - 26.6 °F 80% 30.44 in 9.0 mi Calm Calm - N/A   Clear
9:15 AM 35.6 °F - 26.6 °F 70% 30.44 in 10.0 mi Calm Calm - N/A   Clear
9:35 AM 37.4 °F - 24.8 °F 60% 30.44 in 10.0 mi Calm Calm - N/A   Clear
9:55 AM 39.2 °F - 26.6 °F 61% 30.44 in 10.0 mi Calm Calm - N/A   Clear
10:15 AM 41.0 °F 39.0 °F 24.8 °F 53% 30.44 in 10.0 mi SSE 3.5 mph - N/A   Clear
10:35 AM 42.8 °F - 24.8 °F 49% 30.44 in 10.0 mi Calm Calm - N/A   Clear
10:55 AM 44.6 °F - 23.0 °F 43% 30.43 in 10.0 mi Calm Calm - N/A   Clear
11:15 AM 46.4 °F 45.2 °F 24.8 °F 43% 30.42 in 10.0 mi South 3.5 mph - N/A   Clear
11:35 AM 46.4 °F - 24.8 °F 43% 30.41 in 10.0 mi Calm Calm - N/A   Clear
12:15 PM 48.2 °F - 24.8 °F 40% 30.39 in 10.0 mi Calm Calm - N/A   Clear
12:35 PM 50.0 °F - 26.6 °F 40% 30.38 in 9.0 mi Calm Calm - N/A   Clear
1:35 PM 51.8 °F - 26.6 °F 38% 30.36 in 10.0 mi NNE 3.5 mph - N/A   Clear
1:55 PM 50.0 °F - 26.6 °F 40% 30.35 in 10.0 mi Calm Calm - N/A   Clear
2:15 PM 51.8 °F - 26.6 °F 38% 30.35 in 10.0 mi NE 3.5 mph - N/A   Clear
2:35 PM 51.8 °F - 24.8 °F 35% 30.34 in 10.0 mi Calm Calm - N/A   Clear
2:55 PM 51.8 °F - 24.8 °F 35% 30.34 in 10.0 mi Calm Calm - N/A   Clear
3:15 PM 51.8 °F - 26.6 °F 38% 30.34 in 10.0 mi Calm Calm - N/A   Clear
3:35 PM 50.0 °F - 26.6 °F 40% 30.33 in 10.0 mi Calm Calm - N/A   Clear
3:55 PM 50.0 °F - 26.6 °F 40% 30.33 in 10.0 mi East 3.5 mph - N/A   Clear